Total_Precipitation_Accumulation
1.52 1.61 1.55 1.51 1.52 1.52 1.62 1.70 1.64 1.46 1.28 1.19 1.08 0.95 0.93 0.92 0.88 0.88 0.85 0.75 0.65 0.60 0.56 0.54 0.57 0.60 0.69 0.85 1.02 1.19 1.30 1.39 1.46 1.53 1.64 1.78 1.95 2.13
1.34 1.40 1.45 1.48 1.61 1.56 1.61 1.69 1.73 1.64 1.35 1.27 1.18 0.98 1.03 0.81 0.79 0.82 0.82 0.72 0.57 0.51 0.49 0.49 0.51 0.54 0.57 0.62 0.73 0.87 1.03 1.13 1.22 1.31 1.34 1.36 1.39 1.49
1.02 1.05 1.10 1.19 1.32 1.35 1.42 1.49 1.61 1.66 1.40 1.35 1.48 1.36 1.32 1.10 0.94 0.87 0.73 0.68 0.61 0.52 0.45 0.44 0.45 0.49 0.54 0.56 0.57 0.63 0.75 0.86 0.95 1.08 1.23 1.32 1.37 1.40
0.86 0.88 0.85 0.94 1.09 1.15 1.23 1.34 1.50 1.69 1.54 1.46 1.61 1.66 1.57 1.37 1.24 1.07 0.80 0.65 0.68 0.64 0.49 0.42 0.41 0.44 0.51 0.55 0.52 0.52 0.57 0.63 0.68 0.77 0.92 1.06 1.20 1.32
0.64 0.63 0.63 0.71 0.83 0.95 1.09 1.15 1.26 1.57 1.64 1.52 1.56 1.81 1.79 1.62 1.57 1.31 1.12 1.01 0.75 0.70 0.56 0.46 0.43 0.43 0.48 0.57 0.58 0.54 0.52 0.53 0.56 0.62 0.74 0.89 1.00 1.09
0.54 0.46 0.45 0.54 0.67 0.79 0.89 1.00 1.11 1.28 1.48 1.54 1.54 1.76 1.86 1.76 1.86 1.65 1.42 1.25 1.02 0.80 0.72 0.54 0.47 0.49 0.49 0.52 0.57 0.60 0.61 0.60 0.61 0.68 0.74 0.80 0.92 1.01
0.54 0.43 0.38 0.42 0.49 0.60 0.66 0.78 0.94 1.09 1.20 1.37 1.49 1.65 1.88 1.89 1.77 1.74 1.57 1.41 1.30 1.19 1.15 0.82 0.56 0.48 0.48 0.50 0.56 0.64 0.71 0.75 0.77 0.83 0.92 0.98 1.01 1.06
0.53 0.50 0.43 0.39 0.37 0.42 0.47 0.54 0.63 0.74 0.92 1.13 1.26 1.41 1.65 1.84 1.83 1.85 1.76 1.53 1.41 1.34 1.41 1.41 1.08 0.83 0.66 0.47 0.47 0.57 0.70 0.82 0.86 0.92 1.00 1.14 1.27 1.26
0.49 0.49 0.39 0.34 0.34 0.34 0.35 0.39 0.45 0.46 0.54 0.76 0.92 0.99 1.16 1.46 1.77 1.90 1.97 1.82 1.62 1.58 1.60 1.70 1.77 1.51 1.03 0.71 0.62 0.54 0.62 0.75 0.84 0.91 1.00 1.06 1.23 1.39
0.48 0.46 0.43 0.40 0.40 0.43 0.44 0.43 0.38 0.37 0.38 0.42 0.52 0.72 0.88 1.12 1.49 1.70 1.94 2.10 1.98 1.88 1.84 1.92 2.00 2.21 1.76 1.20 0.97 0.76 0.71 0.75 0.83 0.89 0.97 1.06 1.14 1.25
0.50 0.49 0.47 0.45 0.43 0.38 0.41 0.44 0.39 0.38 0.36 0.39 0.43 0.58 0.77 0.90 1.18 1.51 1.75 1.87 1.93 2.00 2.00 2.07 2.05 2.19 2.51 2.09 1.41 1.01 0.80 0.73 0.78 0.84 0.90 1.02 1.10 1.10
0.66 0.64 0.52 0.42 0.41 0.37 0.38 0.44 0.43 0.42 0.45 0.44 0.45 0.50 0.58 0.72 0.92 1.19 1.40 1.57 1.61 1.74 1.69 1.64 1.67 1.80 2.25 2.54 2.20 1.57 1.12 0.91 0.79 0.77 0.80 0.90 1.01 0.94
0.74 0.75 0.69 0.53 0.40 0.36 0.38 0.43 0.42 0.48 0.56 0.58 0.58 0.62 0.70 0.75 0.81 1.01 1.25 1.44 1.50 1.36 1.21 1.30 1.47 1.54 1.61 1.90 2.13 2.09 1.71 1.36 1.14 0.97 0.90 0.89 0.94 0.95
0.93 0.90 0.86 0.70 0.55 0.46 0.41 0.44 0.48 0.49 0.55 0.61 0.61 0.62 0.67 0.71 0.76 0.91 1.11 1.27 1.39 1.39 1.30 1.35 1.50 1.52 1.57 1.63 1.72 1.84 1.90 1.76 1.59 1.45 1.34 1.30 1.16 1.10
1.10 1.08 1.02 0.81 0.67 0.55 0.48 0.48 0.49 0.49 0.53 0.57 0.55 0.54 0.57 0.64 0.74 0.90 1.07 1.22 1.30 1.26 1.24 1.29 1.34 1.33 1.40 1.47 1.46 1.43 1.55 1.68 1.70 1.67 1.68 1.65 1.52 1.39
1.15 1.07 0.99 0.89 0.75 0.68 0.63 0.56 0.51 0.56 0.58 0.58 0.60 0.62 0.67 0.77 0.86 0.90 1.02 1.16 1.30 1.27 1.21 1.24 1.28 1.33 1.27 1.16 1.12 1.03 1.03 1.17 1.36 1.50 1.68 1.84 1.87 1.83
1.30 1.20 1.13 1.05 0.95 0.90 0.86 0.80 0.74 0.74 0.72 0.72 0.75 0.75 0.75 0.81 0.89 0.94 1.03 1.05 1.09 1.13 1.16 1.22 1.31 1.38 1.34 1.26 1.15 0.99 0.94 0.88 0.95 1.21 1.50 1.75 1.80 1.66
1.11 1.12 1.12 1.09 1.02 0.98 0.97 0.92 0.88 0.86 0.85 0.84 0.84 0.83 0.79 0.81 0.89 1.01 1.10 1.07 1.01 1.01 1.09 1.17 1.36 1.54 1.56 1.39 1.10 0.98 0.96 0.91 0.90 1.04 1.19 1.27 1.29 1.21
0.95 1.02 0.98 0.98 0.96 0.94 0.94 0.90 0.87 0.87 0.91 0.91 0.87 0.87 0.87 0.89 0.91 1.00 1.10 1.12 1.06 1.04 1.13 1.25 1.35 1.42 1.37 1.20 1.05 0.84 0.82 0.83 0.92 1.04 1.09 1.05 0.95 0.85
0.92 0.96 0.96 0.96 0.97 0.98 0.97 0.92 0.91 0.94 0.97 0.97 0.95 0.93 0.95 0.96 0.98 1.00 1.07 1.12 1.09 1.07 1.14 1.23 1.25 1.24 1.20 1.06 0.98 0.89 0.72 0.78 0.83 0.90 0.97 0.99 0.90 0.77
1.00 1.01 1.00 0.98 0.98 1.01 1.00 0.98 0.99 0.98 0.96 1.00 1.00 0.99 0.97 0.98 1.03 1.04 1.10 1.16 1.13 1.09 1.03 1.01 1.07 1.16 1.26 1.38 1.26 1.08 0.94 0.81 0.84 0.83 0.90 1.00 1.00 0.94
0.95 0.99 1.00 0.99 1.02 1.06 1.03 1.01 1.03 1.02 1.00 1.00 1.00 1.01 1.01 0.98 0.99 1.04 1.08 1.10 1.08 1.03 0.99 1.00 1.15 1.33 1.39 1.39 1.29 1.18 1.16 1.12 1.06 1.01 0.94 0.87 0.85 0.83
0.95 0.99 0.97 0.94 0.97 1.00 0.95 0.92 0.95 1.00 1.02 1.03 1.02 1.00 0.99 0.98 0.96 1.00 1.05 1.09 1.11 1.12 1.14 1.17 1.21 1.28 1.33 1.34 1.37 1.33 1.24 1.22 1.22 1.19 1.10 0.92 0.69 0.58